Simultaneous Nadir Overpasses (SNOs) Predictions

Prediction of SNOs between NOAA-20 and METOP-C Satellite Orbit:

Table of predicted SNOs for the next 14.0 days since TLE Epoch: 9/7/2019
Index Date (NOAA-20) Time (NOAA-20) Lat,Lon (NOAA-20) SZA (NOAA-20 ) Date (METOP-C) Time (METOP-C) Lat,Lon (METOP-C) SZA (METOP-C ) Distance(km) Time Diff (sec)
1 09/07/2019 02:31:21 72.18, 134.98 66.00 09/07/2019 02:30:11 72.17, 133.40 66.08 53.87 70
2 09/07/2019 03:22:04 -72.13, -57.62 114.04 09/07/2019 03:20:54 -72.13, -59.36 113.95 59.29 70
3 09/07/2019 04:12:45 71.87, 110.19 65.70 09/07/2019 04:11:38 71.89, 107.53 65.85 91.82 67




NCC Satellite Simultaneous Nadir Overpasses (SNOs) Prediction Service
